• In Hungary
  • List of Countries
  • For 7 days
  • Water Temperature
  • Satellite Maps
  • Weather Map
  • News
  • Weather Widgets
  • user-avatar
    Login

    Hourly Weather Obidowa

    Today, 15 October, Monday

    Time Temperature Precipitation Wind Pressure Humidity
    00:00 +8°C° 0 mm 2 mps 692 mmHg 64%
    01:00 +7°C° 0 mm 2 mps 692 mmHg 67%
    02:00 +7°C° 0 mm 2 mps 692 mmHg 65%
    03:00 +8°C° 0 mm 1 mps 692 mmHg 63%
    04:00 +8°C° 0 mm 1 mps 692 mmHg 62%
    05:00 +8°C° 0 mm 1 mps 692 mmHg 60%
    06:00 +8°C° 0 mm 1 mps 692 mmHg 59%
    07:00 +9°C° 0 mm 1 mps 692 mmHg 54%
    08:00 +11°C° 0 mm 1 mps 693 mmHg 48%
    09:00 +14°C° 0 mm 1 mps 693 mmHg 42%
    10:00 +16°C° 0 mm 1 mps 694 mmHg 36%
    11:00 +18°C° 0 mm 1 mps 694 mmHg 34%
    12:00 +19°C° 0 mm 1 mps 694 mmHg 32%
    13:00 +20°C° 0 mm 1 mps 694 mmHg 30%
    14:00 +19°C° 0 mm 1 mps 693 mmHg 35%
    15:00 +18°C° 0 mm 1 mps 693 mmHg 40%
    16:00 +15°C° 0 mm 1 mps 692 mmHg 45%
    17:00 +14°C° 0 mm 1 mps 692 mmHg 49%
    18:00 +12°C° 0 mm 1 mps 691 mmHg 53%
    19:00 +10°C° 0 mm 1 mps 691 mmHg 57%
    20:00 +9°C° 0 mm 1 mps 691 mmHg 57%
    21:00 +9°C° 0 mm 1 mps 691 mmHg 57%
    22:00 +9°C° 0 mm 1 mps 691 mmHg 57%
    23:00 +8°C° 0 mm 1 mps 691 mmHg 56%

    Tomorrow, 16 October, Tuesday

    Time Temperature Precipitation Wind Pressure Humidity
    00:00 +8°C° 0 mm 1 mps 691 mmHg 54%
    01:00 +8°C° 0 mm 1 mps 691 mmHg 53%
    02:00 +8°C° 0 mm 1 mps 691 mmHg 52%
    03:00 +8°C° 0 mm 1 mps 691 mmHg 50%
    04:00 +7°C° 0 mm 1 mps 690 mmHg 49%
    05:00 +8°C° 0 mm 1 mps 691 mmHg 49%
    06:00 +8°C° 0 mm 1 mps 691 mmHg 50%
    07:00 +8°C° 0 mm 1 mps 691 mmHg 50%
    08:00 +11°C° 0 mm 1 mps 692 mmHg 44%
    09:00 +13°C° 0 mm 1 mps 692 mmHg 39%
    10:00 +16°C° 0 mm 1 mps 693 mmHg 34%
    11:00 +18°C° 0 mm 1 mps 693 mmHg 32%
    12:00 +19°C° 0 mm 1 mps 693 mmHg 31%
    13:00 +20°C° 0 mm 1 mps 693 mmHg 30%
    14:00 +18°C° 0 mm 1 mps 693 mmHg 35%
    15:00 +16°C° 0 mm 1 mps 692 mmHg 40%
    16:00 +15°C° 0 mm 1 mps 692 mmHg 46%
    17:00 +14°C° 0 mm 1 mps 692 mmHg 49%
    18:00 +12°C° 0 mm 1 mps 692 mmHg 51%
    19:00 +11°C° 0 mm 1 mps 691 mmHg 54%
    20:00 +10°C° 0 mm 1 mps 691 mmHg 55%
    21:00 +10°C° 0 mm 1 mps 692 mmHg 55%
    22:00 +10°C° 0 mm 1 mps 692 mmHg 56%
    23:00 +10°C° 0 mm 1 mps 692 mmHg 56%

    Day after tomorrow, 17 October, Wednesday

    Time Temperature Precipitation Wind Pressure Humidity
    00:00 +10°C° 0 mm 1 mps 691 mmHg 56%
    01:00 +10°C° 0 mm 1 mps 691 mmHg 56%
    02:00 +10°C° 0 mm 1 mps 691 mmHg 57%
    03:00 +10°C° 0 mm 1 mps 691 mmHg 58%
    04:00 +10°C° 0 mm 1 mps 691 mmHg 59%
    05:00 +10°C° 0 mm 1 mps 691 mmHg 59%
    06:00 +10°C° 0 mm 1 mps 691 mmHg 60%
    07:00 +10°C° 0 mm 1 mps 691 mmHg 60%
    08:00 +12°C° 0 mm 1 mps 692 mmHg 55%
    09:00 +13°C° 0 mm 0 mps 692 mmHg 49%
    10:00 +16°C° 0 mm 0 mps 693 mmHg 44%
    11:00 +18°C° 0 mm 1 mps 693 mmHg 42%
    12:00 +19°C° 0 mm 1 mps 692 mmHg 41%
    13:00 +20°C° 0 mm 1 mps 692 mmHg 39%
    14:00 +19°C° 0 mm 1 mps 692 mmHg 44%
    15:00 +16°C° 0 mm 1 mps 691 mmHg 48%
    16:00 +15°C° 0 mm 1 mps 691 mmHg 53%
    17:00 +14°C° 0 mm 1 mps 691 mmHg 56%
    18:00 +13°C° 0 mm 1 mps 691 mmHg 59%
    19:00 +11°C° 0 mm 1 mps 690 mmHg 61%
    20:00 +11°C° 0 mm 1 mps 690 mmHg 62%
    21:00 +11°C° 0 mm 1 mps 690 mmHg 63%
    22:00 +10°C° 0 mm 1 mps 690 mmHg 64%
    23:00 +10°C° 0 mm 1 mps 690 mmHg 66%

    18 October, Thursday

    Time Temperature Precipitation Wind Pressure Humidity
    00:00 +9°C° 0 mm 0 mps 690 mmHg 67%
    01:00 +8°C° 0 mm 0 mps 690 mmHg 68%
    02:00 +8°C° 0 mm 0 mps 689 mmHg 69%
    03:00 +8°C° 0 mm 0 mps 689 mmHg 70%
    04:00 +7°C° 0 mm 0 mps 689 mmHg 72%
    05:00 +7°C° 0 mm 0 mps 689 mmHg 72%
    06:00 +8°C° 0 mm 0 mps 689 mmHg 72%
    07:00 +8°C° 0 mm 0 mps 689 mmHg 72%
    08:00 +11°C° 0 mm 1 mps 690 mmHg 65%
    09:00 +13°C° 0 mm 1 mps 690 mmHg 58%
    10:00 +15°C° 0 mm 1 mps 691 mmHg 52%
    11:00 +16°C° 0 mm 1 mps 691 mmHg 50%
    12:00 +16°C° 0 mm 1 mps 691 mmHg 48%
    13:00 +18°C° 0 mm 1 mps 691 mmHg 47%
    14:00 +16°C° 0 mm 1 mps 690 mmHg 52%
    15:00 +15°C° 0 mm 1 mps 690 mmHg 58%
    16:00 +14°C° 0 mm 1 mps 690 mmHg 63%
    17:00 +12°C° 0 mm 1 mps 689 mmHg 67%
    18:00 +11°C° 0 mm 1 mps 689 mmHg 72%
    19:00 +9°C° 0 mm 0 mps 689 mmHg 76%
    20:00 +9°C° 0 mm 0 mps 689 mmHg 77%
    21:00 +9°C° 0 mm 0 mps 689 mmHg 78%
    22:00 +8°C° 0 mm 0 mps 689 mmHg 78%
    23:00 +8°C° 0 mm 0 mps 689 mmHg 78%

    19 October, Friday

    Time Temperature Precipitation Wind Pressure Humidity
    00:00 +8°C° 0 mm 0 mps 689 mmHg 78%
    01:00 +8°C° 0 mm 0 mps 689 mmHg 79%
    02:00 +8°C° 0 mm 0 mps 689 mmHg 78%
    03:00 +8°C° 0 mm 0 mps 689 mmHg 78%
    04:00 +8°C° 0 mm 0 mps 689 mmHg 78%
    05:00 +8°C° 0 mm 0 mps 689 mmHg 78%
    06:00 +8°C° 0 mm 0 mps 689 mmHg 77%
    07:00 +9°C° 0 mm 0 mps 689 mmHg 77%
    08:00 +10°C° 0 mm 0 mps 690 mmHg 71%
    09:00 +13°C° 0 mm 1 mps 690 mmHg 65%
    10:00 +14°C° 0 mm 1 mps 690 mmHg 58%
    11:00 +15°C° 0 mm 1 mps 690 mmHg 56%
    12:00 +15°C° 0 mm 1 mps 690 mmHg 54%
    13:00 +16°C° 0 mm 1 mps 690 mmHg 53%
    14:00 +15°C° 0.1 mm 1 mps 690 mmHg 58%
    15:00 +14°C° 0.1 mm 1 mps 690 mmHg 63%
    16:00 +13°C° 0.1 mm 1 mps 689 mmHg 68%
    17:00 +12°C° 0.1 mm 1 mps 689 mmHg 72%
    18:00 +11°C° 0.1 mm 1 mps 689 mmHg 77%
    19:00 +10°C° 0.1 mm 1 mps 689 mmHg 82%
    20:00 +9°C° 0 mm 1 mps 689 mmHg 84%
    21:00 +9°C° 0 mm 1 mps 689 mmHg 85%
    22:00 +9°C° 0 mm 1 mps 690 mmHg 87%
    23:00 +9°C° 0 mm 1 mps 690 mmHg 87%

    20 October, Saturday

    Time Temperature Precipitation Wind Pressure Humidity
    00:00 +9°C° 0 mm 1 mps 690 mmHg 88%
    01:00 +9°C° 0 mm 1 mps 690 mmHg 88%
    02:00 +8°C° 0 mm 1 mps 690 mmHg 90%
    03:00 +8°C° 0 mm 1 mps 690 mmHg 91%
    04:00 +8°C° 0 mm 1 mps 690 mmHg 93%
    05:00 +8°C° 0.1 mm 1 mps 690 mmHg 93%
    06:00 +8°C° 0.1 mm 1 mps 690 mmHg 93%
    07:00 +8°C° 0.1 mm 1 mps 691 mmHg 93%
    08:00 +7°C° 0.2 mm 2 mps 691 mmHg 89%
    09:00 +8°C° 0.2 mm 2 mps 691 mmHg 85%
    10:00 +8°C° 0.2 mm 3 mps 691 mmHg 81%
    11:00 +8°C° 0 mm 3 mps 691 mmHg 77%
    12:00 +9°C° 0 mm 3 mps 691 mmHg 73%
    13:00 +9°C° 0 mm 2 mps 691 mmHg 69%
    14:00 +8°C° 0 mm 2 mps 691 mmHg 69%
    15:00 +8°C° 0 mm 2 mps 691 mmHg 70%
    16:00 +7°C° 0 mm 2 mps 691 mmHg 70%
    17:00 +6°C° 0 mm 2 mps 691 mmHg 75%
    18:00 +5°C° 0 mm 2 mps 691 mmHg 80%
    19:00 +3°C° 0 mm 2 mps 692 mmHg 86%
    20:00 +3°C° 0 mm 2 mps 692 mmHg 85%
    21:00 +3°C° 0 mm 2 mps 692 mmHg 84%
    22:00 +3°C° 0 mm 2 mps 692 mmHg 84%
    23:00 +3°C° 0 mm 2 mps 692 mmHg 83%
    Show more